Location: Kuhlendorf
(48.9136°N, 7.9223°E)
Time: 22:48:04
(UTC+00:00)

Daily predictions for brighter satellites

Satellite Brightness Start Highest point End
(mag) Time Altitude Azimuth Time Altitude Azimuth Time Altitude Azimuth
Cosmos 1634 Rocket 4.5 19:46:32 10° N 19:52:36 46° ENE 19:58:39 10° SSE
STARLINK-1112 4.4 19:50:50 10° W 19:54:55 55° NNW 19:59:00 10° ENE
Cosmos 1544 3.7 19:52:18 10° N 19:55:47 40° ENE 19:59:12 10° SSE
Cosmos 2082 Rocket 3.6 19:51:30 10° NNW 19:56:21 27° NE 20:01:11 10° ESE
Landsat 7 4.5 19:53:09 10° SE 19:57:37 42° ENE 20:02:06 10° N
STARLINK-1158 4.4 19:54:37 10° WNW 19:58:34 43° SW 20:02:29 10° SE
Cosmos 1908 Rocket 3.7 19:55:00 10° NNW 19:59:26 80° W 20:03:54 10° S
STARLINK-1128 4.5 19:55:51 10° W 19:59:55 54° NNW 20:04:01 10° ENE
STARLINK-1088 3.8 19:56:47 10° WNW 20:00:56 75° NNE 20:05:05 10° ESE
STARLINK-1162 4.5 19:59:35 10° WNW 20:03:29 40° SW 20:07:22 10° SSE
ERS-1 Rocket 4.0 20:00:59 10° SE 20:05:27 33° ENE 20:09:57 10° N
Cosmos 1833 Rocket 3.4 20:00:14 10° NNW 20:05:35 42° NE 20:10:54 10° ESE
STARLINK-1115 3.7 20:01:46 10° WNW 20:05:55 79° NNE 20:10:04 10° ESE
Cosmos 1975 3.0 20:03:50 10° N 20:07:54 63° ENE 20:11:54 10° SSE
STARLINK-1201 4.4 20:05:59 10° SSW 20:09:35 29° SE 20:13:12 10° ENE
Tsikada Rocket 4.0 20:04:13 10° S 20:10:23 76° E 20:16:34 10° NNE
Spot 2 Rocket 3.6 20:05:46 10° SSE 20:10:45 66° ENE 20:15:46 10° N
STARLINK-1076 3.7 20:06:44 10° WNW 20:10:55 83° NNE 20:15:03 10° ESE
Meteor 2-9 Rocket 4.2 20:06:45 10° N 20:12:12 70° ENE 20:17:31 10° SSE
CZ-2C R/B 3.2 20:06:46 10° N 20:12:20 69° WNW 20:17:54 10° SSW
Cosmos 676 Rocket 4.4 20:07:24 10° NNW 20:12:31 52° ENE 20:17:33 11° SE
STARLINK-1082 4.5 20:08:56 10° WNW 20:12:59 49° N 20:17:02 10° E
STARLINK-1206 4.3 20:10:51 10° SSW 20:14:32 32° SE 20:18:13 10° ENE
STARLINK-1092 3.6 20:11:42 10° WNW 20:15:52 87° NNE 20:20:01 10° ESE
Cosmos 389 Rocket 2.7 20:14:13 10° SSW 20:17:39 70° WNW 20:21:09 10° N
STARLINK-1100 4.5 20:13:55 10° WNW 20:17:59 50° N 20:22:02 10° E
SL-4 R/B 3.4 20:16:18 10° N 20:18:47 20° NE 20:21:11 10° E
Cosmos 2242 Rocket 4.2 20:14:43 10° SSW 20:19:04 58° WNW 20:23:25 10° N
Cosmos 2056 Rocket 3.6 20:14:08 10° S 20:19:05 52° ESE 20:24:03 10° NNE
STARLINK-1205 4.2 20:15:43 10° SSW 20:19:28 34° SE 20:23:14 10° ENE
Okean 1 3.5 20:15:57 10° SSW 20:19:59 78° W 20:24:04 10° N
STARLINK-1080 3.6 20:16:43 10° WNW 20:20:53 89° SSW 20:24:54 11° ESE
STARLINK-1083 4.4 20:18:55 10° WNW 20:22:58 51° N 20:27:02 10° E
ISS -3.1 20:20:45 10° WNW 20:24:05 54° N 20:27:25 10° E
STARLINK-1218 4.1 20:20:36 10° SSW 20:24:25 37° SE 20:28:14 10° ENE
Iridium 51 4.3 20:20:44 10° S 20:24:52 78° E 20:28:40 10° N
STARLINK-1090 3.6 20:21:42 10° WNW 20:25:51 85° SSW 20:29:41 12° ESE
Meteor 1-19 Rocket 4.2 20:22:05 10° S 20:27:40 79° E 20:33:27 10° NNE
STARLINK-1125 4.4 20:23:54 10° WNW 20:27:58 52° N 20:32:02 10° E
STARLINK-1254 4.0 20:25:31 10° SSW 20:29:22 39° SE 20:33:15 10° ENE
STARLINK-67 4.0 20:28:34 10° WNW 20:30:19 27° N 20:32:05 10° NE
SL-8 R/B 3.6 20:25:47 10° WSW 20:30:35 72° SSE 20:35:24 10° E
STARLINK-1089 3.6 20:26:41 10° WNW 20:30:50 80° SSW 20:34:28 13° ESE
CARTOSAT-1 4.1 20:28:14 13° SE 20:31:53 46° ENE 20:36:02 10° N
Cosmos 2278 Rocket 2.6 20:26:46 10° S 20:32:03 42° ESE 20:37:23 10° NE
STARLINK-1109 4.3 20:28:53 10° WNW 20:32:57 53° NNE 20:37:02 10° E
Cosmos 1356 4.2 20:30:16 10° NNW 20:33:37 48° W 20:36:57 10° S
STARLINK-1231 3.9 20:30:26 10° SW 20:34:21 42° SE 20:38:17 10° ENE
STARLINK-1107 3.6 20:31:39 10° WNW 20:35:48 76° SSW 20:39:15 15° SE
Meteor 1-18 Rocket 4.4 20:31:41 10° SSW 20:37:15 76° WNW 20:42:56 10° N
STARLINK-1091 4.3 20:33:52 10° WNW 20:37:57 55° NNE 20:42:02 10° E
Meteor 1-12 Rocket 4.4 20:32:41 10° N 20:38:19 64° ENE 20:43:14 14° SSE
Cosmos 1437 Rocket 4.2 20:37:00 15° SE 20:38:53 21° E 20:41:49 10° NE
STARLINK-1232 3.9 20:35:21 10° SW 20:39:18 45° SE 20:43:17 10° ENE
Lacrosse 5 2.3 20:34:48 10° NW 20:39:49 58° NNE 20:44:48 10° ESE
NOSS 2-3 (E) 3.6 20:36:13 10° SSW 20:40:30 72° SE 20:45:38 10° NE
STARLINK-1066 3.6 20:36:39 10° WNW 20:40:47 71° SSW 20:44:02 16° SE
Terra 2.5 20:38:31 14° SE 20:42:13 42° ENE 20:46:43 10° N
Cosmos 1844 Rocket 4.0 20:37:17 10° SW 20:42:43 45° NW 20:48:09 10° NNE
STARLINK-1072 4.2 20:38:52 10° WNW 20:42:58 57° NNE 20:47:03 10° E
STARLINK-1208 3.8 20:40:15 10° SW 20:44:15 49° SE 20:48:15 10° ENE
STARLINK-1228 3.2 20:41:37 10° WSW 20:44:57 77° NNW 20:48:19 10° ENE
STARLINK-1081 3.7 20:41:38 10° WNW 20:45:46 67° SSW 20:48:49 17° SE
STARLINK-1096 4.1 20:43:52 10° WNW 20:47:59 58° NNE 20:52:04 10° E
IGS 5A 3.7 20:44:11 11° S 20:48:04 68° WSW 20:52:14 10° NNW
STARLINK-1234 3.0 20:45:28 10° WSW 20:48:34 76° NNW 20:51:42 10° ENE
STARLINK-1271 3.7 20:45:12 10° SW 20:49:14 52° SSE 20:53:16 10° ENE
STARLINK-1212 2.8 20:46:48 10° WSW 20:49:54 90° SSE 20:53:02 10° ENE
Cosmos 1452 Rocket 4.1 20:45:55 13° SSE 20:50:08 37° ESE 20:54:58 10° NE
STARLINK-1209 3.1 20:47:12 10° WSW 20:50:20 71° NNW 20:53:30 10° ENE
STARLINK-1105 2.8 20:47:17 10° WSW 20:50:23 90° N 20:53:30 10° ENE
Cosmos 2142 Rocket 4.5 20:44:24 10° N 20:50:35 86° E 20:56:10 13° S
STARLINK-1070 3.7 20:46:36 10° WNW 20:50:43 63° SSW 20:53:36 19° SE
Cosmos 1300 Rocket 3.6 20:46:33 10° N 20:51:01 73° E 20:54:26 17° SSE
STARLINK-1247 2.8 20:48:11 10° WSW 20:51:18 89° NW 20:54:26 10° ENE
Cosmos 2084 Rocket 4.5 20:47:07 10° WSW 20:51:18 51° NW 20:55:37 10° NE
Cosmos 1515 4.4 20:47:44 10° SSW 20:51:29 55° WNW 20:55:16 10° N
STARLINK-1227 2.8 20:48:38 10° WSW 20:51:45 88° NW 20:54:52 10° ENE
Okean 3 3.4 20:47:59 10° S 20:52:16 76° E 20:56:36 10° NNE
STARLINK-1226 2.8 20:49:30 10° WSW 20:52:37 87° NNW 20:55:45 10° ENE
Crew Dragon 0.8 20:50:37 10° WNW 20:52:41 47° NNE 20:54:13 16° E
STARLINK-1079 4.1 20:48:50 10° WNW 20:52:57 60° NNE 20:57:03 10° E
STARLINK-1215 2.8 20:50:26 10° WSW 20:53:33 86° NNW 20:56:41 10° ENE
STARLINK-1154 3.6 20:50:08 10° SW 20:54:11 56° SSE 20:58:16 10° ENE
USA 245 3.8 20:50:56 11° S 20:54:25 43° WSW 20:57:22 10° NNW
STARLINK-1217 2.9 20:52:12 10° WSW 20:55:19 84° NNW 20:58:27 10° ENE
STARLINK-1069 3.8 20:51:35 10° WNW 20:55:40 59° SSW 20:58:22 20° SE
STARLINK-1229 2.9 20:53:08 10° WSW 20:56:14 83° NNW 20:59:22 10° ENE
Cosmos 1420 Rocket 4.1 20:51:41 10° S 20:56:47 58° ESE 21:01:53 10° NNE
STARLINK-1270 2.9 20:53:59 10° WSW 20:57:06 82° NNW 21:00:14 10° ENE
STARLINK-1116 4.0 20:53:49 10° WNW 20:57:57 63° NNE 21:01:58 11° E
STARLINK-1189 2.9 20:55:50 10° WSW 20:58:56 80° NNW 21:02:05 10° ENE
Cosmos 2221 Rocket 3.6 20:54:39 10° S 20:59:09 84° E 21:03:43 10° N
STARLINK-1197 3.6 20:55:05 10° SW 20:59:09 60° SSE 21:03:15 10° ENE
Okean 1-7 4.5 20:55:44 10° SW 20:59:42 36° WNW 21:03:41 10° N
STARLINK-1188 2.9 20:56:43 10° WSW 20:59:50 79° NNW 21:02:58 10° ENE
NOSS 2-3 (D) 3.7 20:56:06 10° SW 21:00:25 88° NW 21:05:39 10° NE
STARLINK-1235 3.2 20:57:27 10° WSW 21:00:31 67° NNW 21:03:37 10° ENE
STARLINK-1085 3.9 20:56:36 10° WNW 21:00:39 55° SSW 21:03:10 21° SE
STARLINK-1187 3.1 20:57:51 10° WSW 21:00:56 72° NNW 21:04:01 10° ENE
COSMOS 2406 3.7 20:55:39 10° NW 21:01:18 56° WSW 21:06:00 15° S
Meteor 1-13 Rocket 4.3 20:56:55 12° S 21:02:01 65° E 21:07:40 10° NNE
STARLINK-1191 3.0 20:59:12 10° WSW 21:02:18 77° NNW 21:05:24 10° ENE
STARLINK-1221 3.0 21:00:05 10° WSW 21:03:10 76° NNW 21:06:16 10° ENE
Cosmos 371 Rocket 3.7 21:00:02 15° S 21:03:44 45° ESE 21:08:23 10° NE
STARLINK-1222 3.0 21:00:57 10° WSW 21:04:03 75° NNW 21:07:10 10° ENE
STARLINK-1198 3.5 21:00:00 10° SW 21:04:06 64° SSE 21:08:13 10° ENE
STARLINK-1214 3.0 21:01:53 10° WSW 21:04:59 74° NNW 21:08:05 10° ENE
Resurs 01 Rocket 3.9 21:01:52 10° SW 21:05:12 20° W 21:08:33 10° NW
Meteor 2-4 Rocket 3.7 21:00:06 10° SSW 21:05:30 82° WNW 21:10:53 10° N
STARLINK-1086 4.0 21:01:36 10° WNW 21:05:37 51° SW 21:07:57 23° SSE
USA 215 3.6 20:59:12 10° ESE 21:05:41 66° NNE 21:12:10 10° NW
SPOT 1/Viking Rocket 4.0 21:02:31 13° S 21:07:08 59° W 21:12:15 10° NNW
Abrixas rocket 1.7 21:04:17 10° WSW 21:07:14 76° S 21:09:45 13° E
Cosmos 1674 Rocket 3.9 21:04:49 20° SSE 21:07:27 46° E 21:11:39 10° NNE
STARLINK-1094 3.9 21:03:47 10° WNW 21:07:56 68° NNE 21:11:32 13° ESE
STARLINK-1199 3.5 21:04:59 10° SW 21:09:06 69° SSE 21:13:14 10° ENE
STARLINK-1095 4.0 21:06:34 10° WNW 21:10:34 47° SW 21:12:43 24° SSE
USA 229 DEB 4.4 21:05:01 10° WSW 21:11:30 57° NW 21:18:24 10° NE
Meteor 1-4 Rocket 3.8 21:08:19 10° SW 21:11:35 38° WNW 21:14:51 10° N
USA 229 4.4 21:05:08 10° WSW 21:11:37 58° NW 21:18:30 10° NE
STARLINK-1117 3.8 21:08:46 10° WNW 21:12:55 71° NNE 21:16:19 15° ESE
STARLINK-1210 3.5 21:09:56 10° SW 21:14:03 73° SSE 21:18:12 10° ENE
Cosmos 1378 Rocket 4.1 21:12:35 23° SSE 21:14:56 42° E 21:19:06 10° NNE
STARLINK-1077 4.1 21:11:34 10° WNW 21:15:31 44° SW 21:17:29 25° SSE
NOSS 3 (A) 4.2 21:13:41 16° SSW 21:15:43 67° SE 21:18:43 10° NE
SPOT 5 3.1 21:12:28 18° S 21:16:19 76° WSW 21:21:39 10° NNW
Nadezhda 4 Rocket 4.2 21:13:37 19° SSE 21:17:52 51° E 21:23:47 10° NNE
STARLINK-1078 3.7 21:13:44 10° WNW 21:17:54 74° NNE 21:21:05 16° ESE
STARLINK-1219 3.5 21:14:53 10° WSW 21:19:02 78° SSE 21:23:11 10° ENE
NOSS 3-1 (A) 3.9 21:14:51 10° SW 21:20:26 64° NW 21:27:03 10° NE
STARLINK-1075 4.2 21:16:34 10° WNW 21:20:29 41° SW 21:22:17 26° SSE
Cosmos 1741 Rocket 4.0 21:16:02 10° NNW 21:21:17 73° ENE 21:24:31 23° SSE
ATLAS CENTAUR R/B 3.7 21:20:26 10° NW 21:21:22 12° NNW 21:22:17 10° NNE
STARLINK-1108 3.7 21:18:43 10° WNW 21:22:53 78° NNE 21:25:52 18° ESE
Cosmos 2279 Rocket 4.3 21:17:14 10° NNW 21:23:25 67° W 21:28:35 15° S
STARLINK-1211 3.5 21:19:51 10° WSW 21:23:59 82° SSE 21:28:09 10° ENE
STARLINK-1093 4.3 21:21:35 10° WNW 21:25:27 38° SW 21:27:04 27° S
STARLINK-1244 4.4 21:26:11 28° SSE 21:26:34 29° SE 21:30:09 10° ENE
Okean 2 Rocket 4.0 21:22:37 10° NNW 21:26:51 43° W 21:30:13 15° SSW
STARLINK-1071 3.6 21:23:42 10° WNW 21:27:52 81° NNE 21:30:39 20° ESE
Cosmos 2297 4.4 21:25:26 23° SSE 21:28:09 35° ESE 21:33:17 10° NE
CENTAUR R/B 4.3 21:21:44 10° NW 21:28:41 37° NNE 21:36:27 10° E
STARLINK-1245 3.5 21:24:50 10° WSW 21:28:59 87° SSE 21:33:09 10° ENE
STARLINK-1074 4.5 21:26:35 10° WNW 21:30:24 35° SW 21:31:51 27° S
STARLINK-1138 4.3 21:30:58 30° SSE 21:31:31 31° SE 21:35:11 10° ENE
STARLINK-1110 3.6 21:27:54 10° WNW 21:32:04 85° NNE 21:34:41 22° ESE
BREEZE-M DEB (TANK) 4.0 21:17:05 10° WNW 21:32:13 73° SSW 21:35:38 21° SE
STARLINK-1203 4.3 21:32:36 28° S 21:33:41 33° SE 21:37:28 10° ENE
STARLINK-1233 3.6 21:29:48 10° WSW 21:33:58 89° N 21:38:07 10° ENE
STARLINK-1112 4.5 21:30:54 10° WNW 21:34:56 50° N 21:39:00 10° E
ERBS 2.2 21:32:41 16° SW 21:35:06 56° SE 21:38:22 10° ENE
Cosmos 1850 Rocket 4.0 21:30:01 10° NNW 21:35:23 85° WSW 21:38:31 26° SSE
STARLINK-1143 4.2 21:35:45 31° SSE 21:36:28 33° SE 21:40:12 10° ENE
STARLINK-1124 3.5 21:33:40 10° WNW 21:37:50 89° NNE 21:40:13 25° ESE
STARLINK-1204 3.6 21:34:48 10° WSW 21:38:56 85° NNW 21:43:06 10° ENE
Cosmos 2151 Rocket 4.4 21:35:33 10° NNW 21:39:53 46° W 21:42:53 19° SSW
STARLINK-1128 4.5 21:35:54 10° WNW 21:39:57 51° N 21:44:00 10° E
Cosmos 2082 Rocket 2.4 21:35:15 10° NNW 21:40:57 68° WSW 21:44:18 25° S
STARLINK-1241 4.1 21:40:29 31° S 21:41:24 36° SE 21:45:13 10° ENE
STARLINK-1122 3.5 21:38:39 10° WNW 21:42:49 86° SSW 21:45:00 27° ESE
STARLINK-1238 3.7 21:39:45 10° WSW 21:43:54 81° NNW 21:48:03 10° ENE
ERS-1 Rocket 4.1 21:40:28 15° SSW 21:44:11 38° W 21:48:53 10° NNW
Okean 1 Rocket 3.1 21:40:07 10° N 21:44:39 87° WSW 21:46:51 30° S
STARLINK-1113 4.4 21:40:53 10° WNW 21:44:56 52° N 21:49:00 10° E
SeaSat 1 2.6 21:40:49 10° NE 21:45:40 53° ESE 21:48:19 26° S
Cosmos 1110 Rocket 4.4 21:43:29 28° SSE 21:45:43 43° ESE 21:50:37 10° NE
STARLINK-1239 4.0 21:45:15 32° S 21:46:21 38° SE 21:50:13 10° ENE
STARLINK-1126 3.5 21:43:35 10° WNW 21:47:44 82° SSW 21:49:43 30° ESE
STARLINK-1201 3.7 21:44:45 10° WSW 21:48:54 77° NNW 21:53:03 10° ENE
Cosmos 1833 Rocket 3.7 21:44:20 10° NW 21:49:28 37° WSW 21:52:51 19° SSW
STARLINK-1119 4.4 21:45:52 10° WNW 21:49:56 53° N 21:54:01 10° E
Aureole 2 Rocket 2.7 21:51:14 41° ESE 21:51:15 41° ESE 21:54:12 10° NE
STARLINK-1240 3.9 21:50:02 31° S 21:51:19 41° SE 21:55:14 10° ENE
Cosmos 1805 3.3 21:48:08 10° N 21:52:04 69° E 21:53:26 38° SSE
SL-4 R/B 2.0 21:49:06 10° NW 21:52:06 38° WSW 21:52:33 35° SW
Meteor 1-15 Rocket 4.5 21:46:29 10° NNW 21:52:24 70° W 21:56:04 24° S
BREEZE-M DEB (TANK) 4.4 21:35:13 10° W 21:52:28 88° SSW 21:56:23 14° ESE
Cosmos 304 Rocket 3.8 21:50:10 28° S 21:52:31 61° ESE 21:57:16 10° NNE
STARLINK-1082 3.5 21:48:38 10° WNW 21:52:47 78° SSW 21:54:34 33° SE
EO 1 Del DPAF 3.8 21:49:13 10° NNE 21:52:49 40° E 21:53:37 35° SE
STARLINK-1206 3.8 21:49:44 10° WSW 21:53:53 74° NNW 21:58:03 10° ENE
STARLINK-1114 4.3 21:50:52 10° WNW 21:54:57 54° NNE 21:59:02 10° E
Okean 2 4.0 21:53:51 33° SE 21:55:00 41° E 21:58:55 10° NNE
NOSS 3-2 (A) 4.5 21:48:09 10° NW 21:55:18 57° NE 22:02:51 12° ESE
Cosmos 1092 Rocket 4.1 21:52:19 26° SSE 21:55:47 62° E 22:01:51 10° NNE
STARLINK-1216 3.9 21:54:48 31° SSW 21:56:16 44° SE 22:00:14 10° ENE
Cosmos 332 Rocket 3.8 21:52:44 18° SSW 21:56:24 84° WNW 22:01:22 10° NNE
Cosmos 1455 Rocket 3.8 21:53:21 10° N 21:57:29 39° ENE 21:59:07 28° ESE
STARLINK-1100 3.5 21:53:36 10° WNW 21:57:44 73° SSW 21:59:21 36° SE
Cosmos 2369 Rocket 3.6 21:57:14 19° ESE 21:58:27 21° E 22:02:34 10° NE
STARLINK-1205 3.9 21:54:44 10° WSW 21:58:53 71° NNW 22:03:02 10° ENE
STARLINK-1130 (DARKSAT) 4.2 21:55:50 10° WNW 21:59:55 56° NNE 22:03:56 10° E
ISS -3.7 21:57:37 10° WNW 22:00:57 60° SSW 22:01:21 55° S
STARLINK-1237 3.8 21:59:35 30° SSW 22:01:14 48° SE 22:05:14 10° ENE
Cosmos 1066 Rocket 4.2 21:58:19 21° SSW 22:01:59 79° WNW 22:07:23 10° N
USA 238 DEB 4.3 21:55:36 10° NW 22:02:39 59° NE 22:08:58 15° ESE
STARLINK-67 4.1 22:00:56 10° NW 22:02:31 25° N 22:02:31 25° N
STARLINK-1083 3.5 21:58:35 10° WNW 22:02:42 69° SSW 22:04:07 39° SE
USA 238 4.3 21:55:41 10° NW 22:02:45 59° NE 22:09:06 14° ESE
Cosmos 1378 3.0 22:02:30 43° S 22:03:37 79° E 22:07:21 10° NNE
STARLINK-1218 3.9 21:59:43 10° WSW 22:03:51 68° NNW 22:08:00 10° ENE
STARLINK-1084 4.2 22:00:49 10° WNW 22:04:55 58° NNE 22:08:43 12° E
Cosmos 1842 3.9 22:05:25 35° ESE 22:06:12 39° E 22:09:53 10° NNE
STARLINK-1202 3.7 22:04:22 28° SSW 22:06:12 51° SE 22:10:14 10° ENE
STARLINK-1125 3.6 22:03:34 10° WNW 22:07:41 64° SSW 22:08:54 41° SSE
STARLINK-1254 4.0 22:04:43 10° W 22:08:51 65° NNW 22:12:59 10° ENE
Cosmos 1943 Rocket 3.0 22:07:36 28° SE 22:09:10 33° ESE 22:14:06 10° NE
Cosmos 1331 Rocket 4.0 22:07:06 31° S 22:09:25 61° ESE 22:14:32 10° NNE
STARLINK-1098 4.1 22:05:50 10° WNW 22:09:56 60° NNE 22:13:31 13° E
STARLINK-1109 3.6 22:08:32 10° WNW 22:12:38 60° SSW 22:13:41 44° SSE
SL-8 R/B 3.6 22:08:16 10° W 22:13:06 84° S 22:17:57 10° E
STARLINK-1231 4.1 22:09:45 10° W 22:13:52 63° NNW 22:18:00 10° ENE
STARLINK-1123 4.0 22:10:48 10° WNW 22:14:55 62° NNE 22:18:17 15° E
Cosmos 1437 Rocket 4.2 22:12:22 15° SW 22:14:58 32° WNW 22:18:26 10° N
STARLINK-1246 3.6 22:13:54 25° SW 22:16:07 59° SSE 22:20:12 10° ENE
Cosmos 2278 Rocket 3.5 22:10:54 10° WSW 22:16:12 39° NW 22:21:32 10° NNE
STARLINK-1091 3.7 22:13:32 10° WNW 22:17:36 56° SSW 22:18:28 46° SSE
Cosmos 2195 Rocket 4.5 22:14:48 28° S 22:18:21 79° E 22:24:39 10° NNE
STARLINK-1232 4.1 22:14:45 10° W 22:18:51 60° NNW 22:22:58 10° ENE
STARLINK-1097 4.0 22:15:47 10° WNW 22:19:54 64° NNE 22:23:04 17° E
Terra 3.4 22:17:24 17° SW 22:20:06 27° W 22:24:10 10° NW
ALOS 2 3.2 22:19:22 30° ESE 22:21:03 46° ENE 22:25:17 10° N
STARLINK-1224 3.5 22:18:39 23° SW 22:21:05 63° SSE 22:25:11 10° ENE
STARLINK-1228 4.5 22:18:40 10° WNW 22:21:51 39° N 22:25:01 10° ENE
STARLINK-1072 3.8 22:18:32 10° WNW 22:22:35 52° SSW 22:23:15 46° S
Lacrosse 5 2.5 22:17:58 10° WNW 22:22:41 40° SW 22:24:01 33° SSW
STARLINK-1208 4.2 22:19:44 10° W 22:23:50 58° NNW 22:27:56 10° ENE
STARLINK-1234 4.5 22:21:43 10° WNW 22:24:40 37° N 22:27:37 10° ENE
STARLINK-1099 3.9 22:20:44 10° WNW 22:24:52 67° NNE 22:27:49 18° E
Thor Agena Rocket 3.6 22:19:58 10° NNE 22:25:19 89° W 22:28:05 29° SSW
Spot 4 3.8 22:23:24 37° S 22:25:23 84° WSW 22:30:17 10° NNW
STARLINK-1212 4.4 22:23:00 10° WNW 22:25:57 38° N 22:28:53 10° ENE
STARLINK-1225 3.5 22:23:26 21° SW 22:26:04 67° SSE 22:30:12 10° ENE
Crew Dragon 3.2 22:24:18 10° W 22:24:19 10° W 22:24:19 10° W
STARLINK-1105 4.4 22:23:30 10° WNW 22:26:25 37° N 22:29:21 10° ENE
STARLINK-1209 4.5 22:23:39 10° WNW 22:26:36 37° N 22:29:36 10° ENE
STARLINK-1247 4.4 22:24:24 10° WNW 22:27:21 38° N 22:30:18 10° ENE
STARLINK-1096 3.8 22:23:33 10° WNW 22:27:34 49° SW 22:28:03 46° S
STARLINK-1227 4.4 22:24:52 10° WNW 22:27:48 37° N 22:30:44 10° ENE
STARLINK-1226 4.4 22:25:43 10° WNW 22:28:40 37° N 22:31:37 10° ENE
STARLINK-1271 4.3 22:24:45 10° W 22:28:50 56° NNW 22:32:57 10° ENE
Cosmos 1428 Rocket 4.5 22:26:14 30° S 22:29:30 76° E 22:35:49 10° NNE
STARLINK-1215 4.4 22:26:40 10° WNW 22:29:37 37° N 22:32:34 10° ENE
STARLINK-1104 3.8 22:25:44 10° WNW 22:29:52 70° NNE 22:32:37 20° E
STARLINK-1230 3.5 22:28:12 20° SW 22:31:02 72° SSE 22:35:10 10° ENE
SL-4 R/B 2.3 22:31:54 33° N 22:31:54 33° N 22:33:19 10° N
STARLINK-1217 4.4 22:28:27 10° WNW 22:31:23 37° N 22:34:20 10° ENE
BREEZE-M DEB (TANK) 3.2 22:19:07 10° WSW 22:31:35 75° SSE 22:35:05 10° E
STARLINK-1229 4.4 22:29:22 10° WNW 22:32:19 37° N 22:35:16 10° ENE
STARLINK-1079 3.9 22:28:31 10° WNW 22:32:30 45° SW 22:32:48 44° SSW
STARLINK-1270 4.4 22:30:14 10° WNW 22:33:10 37° N 22:36:08 10° ENE
Cosmos 1544 Rocket 3.6 22:29:00 10° N 22:33:19 66° ENE 22:34:36 42° SE
STARLINK-1154 4.3 22:29:46 10° W 22:33:50 55° NNW 22:37:56 10° ENE
EXPRESS MD2 4.2 22:30:08 11° SW 22:34:16 68° SSE 22:43:17 10° ENE
STARLINK-1144 3.8 22:30:43 10° WNW 22:34:52 73° NNE 22:37:24 23° ESE
STARLINK-1189 4.4 22:32:05 10° WNW 22:35:02 37° N 22:37:59 10° ENE
Cosmos 1726 3.8 22:32:24 10° NNE 22:35:23 22° ENE 22:36:25 20° E
STARLINK-1188 4.4 22:32:58 10° WNW 22:35:55 37° N 22:38:52 10° ENE
STARLINK-1243 3.4 22:32:59 18° SW 22:36:00 76° SSE 22:40:09 10° ENE
STARLINK-1235 4.5 22:33:44 10° WNW 22:36:39 36° N 22:39:34 10° ENE
STARLINK-1187 4.5 22:34:08 10° WNW 22:37:02 36° N 22:39:57 10° ENE
Cosmos 1766 4.1 22:33:34 10° NNW 22:37:19 42° W 22:38:27 33° SW
STARLINK-1116 4.0 22:33:31 10° WNW 22:37:27 42° SW 22:37:35 42° SSW
STARLINK-1191 4.4 22:35:28 10° WNW 22:38:23 36° N 22:41:19 10° ENE
STARLINK-1197 4.4 22:34:46 10° W 22:38:50 53° NNW 22:42:55 10° ENE
SL-27 R/B 2.9 22:35:21 10° NNW 22:38:55 53° ENE 22:39:37 44° ESE
STARLINK-1221 4.5 22:36:21 10° WNW 22:39:16 36° N 22:42:11 10° ENE
STARLINK-1103 3.7 22:35:42 10° WNW 22:39:51 76° NNE 22:42:11 25° ESE
STARLINK-1222 4.5 22:37:15 10° WNW 22:40:09 36° N 22:43:05 10° ENE
STARLINK-1236 3.4 22:37:45 16° WSW 22:40:59 81° SSE 22:45:08 10° ENE
STARLINK-1214 4.5 22:38:09 10° WNW 22:41:04 36° N 22:44:00 10° ENE
Cosmos 1553 Rocket 4.0 22:36:07 10° N 22:42:30 77° E 22:45:31 33° SSE
Cosmos 1953 3.5 22:38:58 10° N 22:42:36 32° ENE 22:43:45 27° ESE
Abrixas rocket 3.5 22:39:46 10° W 22:41:15 26° W 22:41:15 26° W
STARLINK-1198 4.4 22:39:44 10° W 22:43:48 52° N 22:47:53 10° ENE
Cosmos 1340 Rocket 4.4 22:40:40 10° N 22:44:07 26° ENE 22:45:32 21° ESE
STARLINK-1101 3.6 22:40:40 10° WNW 22:44:50 80° NNE 22:46:57 28° ESE
Cosmos 1461 2.9 22:43:04 32° SW 22:44:57 81° NW 22:49:21 10° NE
Cosmos 1271 Rocket 3.2 22:46:32 42° ESE 22:46:58 44° E 22:50:42 10° NNE
STARLINK-1094 4.3 22:43:33 10° WNW 22:47:10 36° SW 22:47:10 36° SW
USA 215 3.4 22:45:48 31° SSE 22:48:50 54° SW 22:55:14 10° WNW
STARLINK-1199 4.5 22:44:47 10° W 22:48:50 51° N 22:52:54 10° ENE
Cosmos 2026 Rocket 4.1 22:45:53 28° SSW 22:49:20 75° W 22:55:43 10° N
STARLINK-1102 3.6 22:45:41 10° WNW 22:49:50 84° NNE 22:51:45 31° ESE
Aureole 3 Rocket 3.9 22:45:35 10° N 22:50:45 86° W 22:54:05 32° S
STARLINK-1269 3.5 22:47:16 13° WSW 22:50:55 89° S 22:55:05 10° ENE
Cosmos 1758 3.3 22:47:07 10° N 22:51:10 75° E 22:52:04 52° SSE
STARLINK-1117 4.5 22:48:33 10° WNW 22:51:56 33° SW 22:51:56 33° SW
Cosmos 1707 3.1 22:53:56 45° ESE 22:54:28 49° E 22:58:16 10° NNE
STARLINK-1111 3.5 22:50:39 10° WNW 22:54:48 88° NNE 22:56:31 35° ESE
STARLINK-1200 3.5 22:52:04 12° WSW 22:55:55 86° NNW 23:00:05 10° ENE
Cosmos 1733 4.3 22:53:10 10° NNW 22:56:37 32° W 22:57:26 29° WSW
Cosmos 1900 4.3 22:51:45 10° NW 22:56:47 75° WSW 22:58:31 41° SSE
NOSS 2-2 (D) 3.0 22:57:14 55° SW 22:57:59 88° SE 23:02:05 10° NE
STARLINK-1073 3.5 22:55:38 10° WNW 22:59:48 88° SSW 23:01:19 38° ESE
NOSS 3-2 (C) 4.1 22:52:57 10° NW 23:00:21 79° NE 23:07:07 17° SE
STARLINK-1192 3.6 22:56:50 11° WSW 23:00:55 82° NNW 23:05:04 10° ENE
Cosmos 1975 Rocket 3.9 23:00:54 28° SW 23:02:47 44° WNW 23:07:04 10° N
Cosmos 2292 Rocket 4.4 23:02:09 33° ESE 23:03:02 37° E 23:06:30 10° NNE
STARLINK-1121 3.5 23:00:36 10° WNW 23:04:45 84° SSW 23:06:04 42° ESE
STARLINK-1244 3.7 23:01:43 10° WSW 23:05:53 79° NNW 23:10:02 10° ENE
STARLINK-1106 3.5 23:05:35 10° WNW 23:09:44 79° SSW 23:10:51 47° SE
STARLINK-1138 3.7 23:06:43 10° WSW 23:10:51 75° NNW 23:15:01 10° ENE
NOSS 3-4 (A) 4.2 23:10:07 28° SE 23:11:28 31° ESE 23:16:53 10° NE
ERBS 4.2 23:08:34 10° W 23:11:34 31° NNW 23:14:35 10° NE
NOSS 3-4 (C) 4.3 23:10:13 28° SE 23:11:35 31° ESE 23:16:59 10° NE
Meteor 2-10 3.9 23:06:56 10° N 23:12:04 76° ENE 23:13:53 40° SSE
SL-4 R/B 4.3 23:13:39 15° ESE 23:13:39 15° ESE 23:15:17 10° E
Cosmos 1242 Rocket 2.7 23:11:36 54° SW 23:12:10 65° WNW 23:15:50 10° N
STARLINK-1203 3.8 23:09:05 10° WSW 23:13:17 73° NNW 23:17:29 10° ENE
Aureole 3 3.8 23:09:46 10° N 23:13:24 40° ENE 23:13:55 37° E
STARLINK-1112 3.5 23:10:35 10° WNW 23:14:44 75° SSW 23:15:39 52° SE
STARLINK-1143 3.8 23:11:42 10° WSW 23:15:51 72° NNW 23:20:00 10° ENE
ATLAS 3B R/B 3.5 23:09:50 10° NW 23:16:23 50° NE 23:23:07 10° ESE
NOSS 2-2 (E) 3.9 23:15:11 26° WSW 23:17:01 53° NW 23:21:14 10° NE
Cosmos 2266 Rocket 4.1 23:16:09 34° SSE 23:18:48 64° E 23:24:49 10° NNE
Cosmos 1674 4.0 23:18:32 26° ESE 23:19:00 27° E 23:22:13 10° NNE
STARLINK-1128 3.5 23:15:34 10° WNW 23:19:42 70° SSW 23:20:26 55° SSE
Cosmos 1470 3.3 23:16:20 10° NNW 23:20:03 44° W 23:20:37 41° WSW
ATLAS CENTAUR R/B 3.5 23:20:47 15° ESE 23:20:47 15° ESE 23:22:58 10° ENE
CENTAUR R/B 3.2 23:12:28 10° NW 23:20:27 86° NE 23:27:41 17° SE
STARLINK-1241 3.9 23:16:42 10° WSW 23:20:50 69° NNW 23:24:58 10° ENE
Cosmos 1503 Rocket 4.0 23:17:15 10° NNW 23:22:34 79° ENE 23:24:51 35° SSE
SeaSat 1 4.1 23:18:42 10° NNE 23:22:59 30° NW 23:27:15 10° WSW
Cosmos 2082 Rocket 4.4 23:22:23 10° WNW 23:23:56 11° W 23:25:28 10° WSW
STARLINK-1113 3.5 23:20:33 10° WNW 23:24:40 66° SSW 23:25:12 58° SSE
STARLINK-1239 3.9 23:21:41 10° WSW 23:25:49 66° NNW 23:29:57 10° ENE
STARLINK-1119 3.5 23:25:32 10° WNW 23:29:38 62° SSW 23:29:59 59° S
BREEZE-M DEB 4.0 23:26:08 10° W 23:29:53 89° N 23:44:01 10° E
STARLINK-1240 4.0 23:26:42 10° W 23:30:49 63° NNW 23:34:56 10° ENE
BREEZE-M DEB (TANK) 2.9 23:27:57 10° WNW 23:31:24 76° SSW 23:36:34 10° ESE
Cosmos 1867 3.9 23:26:40 10° NW 23:32:07 63° NE 23:36:08 18° SE
Cosmos 883 Rocket 4.4 23:28:05 10° N 23:34:17 85° E 23:37:08 34° SSE
STARLINK-1114 3.6 23:30:32 10° WNW 23:34:37 57° SSW 23:34:46 57° SSW
Helios 1A 3.2 23:33:57 46° SW 23:34:45 55° W 23:38:52 10° NNW
STARLINK-1216 4.1 23:31:42 10° W 23:35:48 61° NNW 23:39:55 10° ENE
Cosmos 968 Rocket 3.6 23:31:21 10° NNW 23:36:28 61° WSW 23:38:01 41° SSW
Meteor 2-19 Rocket 4.4 23:34:37 35° S 23:37:23 86° E 23:43:34 10° N
Cosmos 1354 Rocket 3.9 23:32:09 10° NNW 23:37:29 88° WSW 23:39:38 37° SSE
Cosmos 1908 3.6 23:35:26 10° N 23:39:12 54° ENE 23:40:02 43° ESE
STARLINK-1130 (DARKSAT) 3.7 23:35:30 10° WNW 23:39:32 54° SW 23:39:32 54° SW
ATLAS 2AS CENTAUR R/B 3.2 23:35:53 31° S 23:39:48 58° ESE 23:47:33 10° NE
NOSS 2-2 (C) 4.3 23:37:50 21° W 23:39:54 42° NW 23:43:56 10° NNE
STARLINK-1237 4.1 23:36:42 10° W 23:40:48 59° NNW 23:44:55 10° ENE
Cosmos 2369 Rocket 2.3 23:38:59 30° SW 23:41:54 72° WNW 23:47:35 10° NNE
STARLINK-1084 3.8 23:40:30 10° WNW 23:44:19 49° SW 23:44:19 49° SW
STARLINK-1202 4.2 23:41:43 10° W 23:45:48 57° NNW 23:49:55 10° ENE
CZ-2D R/B 4.3 23:43:10 10° NE 23:45:52 14° E 23:48:33 10° ESE
NOSS 3-2 (A) 4.3 23:39:07 10° NW 23:46:20 50° WSW 23:50:12 30° S
Cosmos 1025 Rocket 3.7 23:45:35 33° WSW 23:46:53 43° WNW 23:51:00 10° N
Cosmos 1726 Rocket 4.0 23:43:54 10° N 23:48:10 54° ENE 23:49:40 35° SE
Cosmos 2315 Rocket 3.9 23:42:58 10° N 23:49:12 88° E 23:52:12 33° S
STARLINK-1098 4.0 23:45:31 10° WNW 23:49:07 45° SW 23:49:07 45° SW
Helios 1B rocket 2.5 23:47:49 10° NNE 23:51:56 64° ESE 23:52:51 48° SSE
Cosmos 1943 Rocket 3.0 23:49:04 19° WSW 23:52:45 46° NW 23:58:09 10° NNE
STARLINK-1123 4.1 23:50:30 10° WNW 23:53:53 41° WSW 23:53:53 41° WSW
STARLINK-1246 4.3 23:51:43 10° W 23:55:47 54° NNW 23:59:52 10° ENE
KORONAS-FOTON 3.8 23:55:13 54° SSE 23:55:50 66° E 23:59:38 10° NNE
Resurs 1-4 Rocket 4.1 23:52:31 10° NE 23:56:03 18° E 23:59:06 12° SE
